Location: Newark
(5.8900°S, 42.6378°W)
Time: 16:16:19
(UTC+00:00)

Vanguard 1 - All Passes

Search period start: 15 September 2019 00:00
Search period end: 25 September 2019 00:00
Orbit: 654 x 3829 km, 34.3° (Epoch: 15 September)

Date Brightness Start Highest point End Pass type
(mag) Time Alt. Az. Time Alt. Az. Time Alt. Az.
15 Sep - 00:08:48 10° SW 00:22:55 44° SE 00:43:53 10° E visible
15 Sep - 02:30:19 10° SW 02:49:54 86° NW 03:13:31 10° NE visible
15 Sep - 04:57:41 10° W 05:17:51 38° NW 05:36:12 10° NNE visible
15 Sep - 07:43:13 10° NW 07:47:18 11° NNW 07:51:03 10° NNW visible
15 Sep - 15:02:21 10° NW 15:07:06 49° NE 15:11:26 10° ESE daylight
15 Sep - 17:24:34 10° WSW 17:27:36 17° SSW 17:31:10 10° SSE daylight
15 Sep - 22:10:27 10° SSW 22:18:24 20° SSE 22:29:40 10° ESE visible
16 Sep - 00:29:37 10° SW 00:44:39 54° SE 01:07:01 10° ENE visible
16 Sep - 02:51:50 10° WSW 03:11:39 72° NW 03:34:50 10° NE visible
16 Sep - 05:21:28 10° W 05:39:59 30° NW 05:56:34 10° NNE visible
16 Sep - 13:05:29 10° N 13:07:07 11° NNE 13:08:36 10° NE daylight
16 Sep - 15:23:16 10° NW 15:28:05 83° SW 15:32:38 10° SE daylight
16 Sep - 17:48:10 10° SSW 17:49:13 11° SSW 17:50:20 10° S daylight
16 Sep - 22:31:04 10° SSW 22:40:29 25° SSE 22:54:35 10° E visible
17 Sep - 00:50:31 10° SW 01:06:16 67° SE 01:29:37 10° ENE visible
17 Sep - 03:13:41 10° WSW 03:33:28 59° NW 03:55:54 10° NE visible
17 Sep - 05:46:19 10° WNW 06:02:27 23° NNW 06:16:45 10° NNE visible
17 Sep - 13:24:18 10° NNW 13:28:39 19° NNE 13:32:08 10° ENE daylight
17 Sep - 15:44:39 10° WNW 15:49:05 41° SW 15:53:27 10° SE daylight
17 Sep - 22:51:39 10° SSW 23:02:19 32° SE 23:19:00 10° E visible
18 Sep - 01:11:31 10° SW 01:27:51 81° SE 01:51:44 10° NE visible
18 Sep - 03:35:56 10° WSW 03:55:27 47° NW 04:16:46 10° NNE visible
18 Sep - 06:12:31 10° WNW 06:25:20 17° NNW 06:36:39 10° N visible
18 Sep - 13:44:28 10° NNW 13:50:00 33° NNE 13:54:09 10° E daylight
18 Sep - 16:06:34 10° W 16:10:10 22° SSW 16:13:51 10° SSE daylight
18 Sep - 20:55:29 10° S 20:58:49 12° SSE 21:02:46 10° SE visible
18 Sep - 23:12:15 10° SSW 23:23:56 41° SE 23:42:49 10° E visible
19 Sep - 01:32:43 10° SW 01:49:29 84° NW 02:13:29 10° NE visible
19 Sep - 03:58:45 10° W 04:17:36 38° NW 04:37:27 10° NNE visible
19 Sep - 06:40:32 10° NW 06:48:40 13° NNW 06:56:00 10° N visible
19 Sep - 11:46:54 10° N 11:48:55 11° NNE 11:50:44 10° NE daylight
19 Sep - 14:05:12 10° NW 14:11:09 60° NE 14:15:35 10° ESE daylight
19 Sep - 16:29:22 10° SW 16:31:27 13° SSW 16:33:35 10° S daylight
19 Sep - 21:15:15 10° S 21:20:54 16° SSE 21:28:25 10° ESE visible
19 Sep - 23:32:56 10° SW 23:45:23 53° SE 00:06:03 10° ENE visible
20 Sep - 01:54:07 10° WSW 02:11:13 69° NW 02:34:54 10° NE visible
20 Sep - 04:22:20 10° W 04:40:02 29° NNW 04:58:01 10° NNE visible
20 Sep - 12:05:34 10° NNW 12:10:48 17° NNE 12:14:43 10° ENE daylight
20 Sep - 14:26:22 10° WNW 14:32:09 72° SW 14:36:36 10° SE daylight
20 Sep - 21:35:24 10° SSW 21:42:42 21° SSE 21:53:26 10° ESE visible
20 Sep - 23:53:42 10° SW 00:06:46 66° SE 00:28:43 10° ENE visible
21 Sep - 02:15:51 10° WSW 02:33:07 56° NW 02:56:04 10° NE visible
21 Sep - 04:46:52 10° WNW 05:02:49 23° NNW 05:18:28 10° NNE visible
21 Sep - 12:25:37 10° NNW 12:32:27 27° NNE 12:37:04 10° E daylight
21 Sep - 14:47:59 10° WNW 14:53:06 38° SW 14:57:15 10° SSE daylight
21 Sep - 21:55:42 10° SSW 22:04:16 29° SE 22:17:52 10° E visible
22 Sep - 00:14:37 10° SW 00:28:11 82° SE 00:50:55 10° NE visible
22 Sep - 02:38:00 10° W 02:55:11 45° NW 03:17:02 10° NNE visible
22 Sep - 05:12:36 10° WNW 05:26:02 18° NNW 05:38:49 10° NNE visible
22 Sep - 10:26:20 10° N 10:30:08 12° NNE 10:33:19 10° NE daylight
22 Sep - 12:46:13 10° NW 12:53:52 43° NNE 12:58:45 10° ESE daylight
22 Sep - 15:10:11 10° W 15:14:04 21° SW 15:17:30 10° SSE daylight
22 Sep - 22:16:08 10° SSW 22:25:37 38° SE 22:41:40 10° E visible
23 Sep - 00:35:43 10° WSW 00:49:43 81° NW 01:12:44 10° NE visible
23 Sep - 03:00:42 10° W 03:17:31 36° NNW 03:37:51 10° NNE visible
23 Sep - 05:39:41 10° NW 05:49:42 14° NNW 05:59:05 10° N visible
23 Sep - 10:45:30 10° NNW 10:52:20 17° NNE 10:57:18 10° ENE daylight
23 Sep - 13:07:14 10° NW 13:15:04 73° NE 13:19:59 10° ESE daylight
23 Sep - 15:33:33 10° SW 15:35:12 12° SSW 15:36:47 10° S daylight
23 Sep - 20:20:54 10° S 20:23:49 12° SSE 20:27:15 10° SE daylight
23 Sep - 22:36:40 10° SW 22:46:50 51° SE 23:04:52 10° ENE visible
24 Sep - 00:57:05 10° WSW 01:11:25 66° NW 01:34:13 10° NE visible
24 Sep - 03:24:05 10° W 03:40:09 28° NNW 03:58:34 10° NNE visible
24 Sep - 06:08:01 10° NNW 06:13:47 11° NNW 06:19:12 10° N visible
24 Sep - 11:05:37 10° NNW 11:14:17 25° NNE 11:19:56 10° ENE daylight
24 Sep - 13:28:40 10° WNW 13:36:05 67° SW 13:40:53 10° SE daylight
24 Sep - 20:40:07 10° S 20:45:26 17° SE 20:52:45 10° ESE daylight
24 Sep - 22:57:21 10° SW 23:08:02 66° SE 23:27:32 10° ENE visible
